Regional Weather Roundup
Issued by NWS Charleston, SC

Current Version | Previous Version | Graphics & Text | Print | Product List | Glossary On
Versions: 1 2 3 4 5 6 7 8 9 10 11 12 13 14 15 16 17 18 19 20 21 22 23 24 25 26 27 28 29 30 31 32 33 34 35 36 37 38 39 40 41 42 43 44 45 46 47 48 49 50
000 ASUS42 KCHS 242028 RWRCHS REGIONAL WEATHER ROUNDUP NATIONAL WEATHER SERVICE CHARLESTON SC 400 PM EDT SUN JUL 24 2016 NOTE: "FAIR" INDICATES FEW OR NO CLOUDS BELOW 12,000 FEET WITH NO SIGNIFICANT WEATHER AND/OR OBSTRUCTIONS TO VISIBILITY. NOT ALL STATIONS ARE QUALITY CONTROLLED. USE DATA WITH CAUTION... ESPECIALLY DEWPOINT OBSERVATIONS. SCZ027-030-031-034>040-042>050-242100- ...SOUTHEAST SOUTH CAROLINA... CITY SKY/WX TMP DP RH WIND PRES REMARKS N CHARLESTON CLOUDY 92 75 57 SW9 30.02S THUNDER HX 103 WATERFRONT PRK N/A 88 79 74 S7 30.01S HX 103 MOUNT PLEASANT FAIR 88 81 79 CALM 30.03S HX 105 JOHNS ISLAND FAIR 90 79 70 S10 30.03S HX 105 PINOPOLIS N/A 86 75 70 VRB2 29.95S HX 95 MONCKS CORNER FAIR 81 72 74 S12G17 30.04R THUNDER SUMMERVILLE NOT AVBL BEAUFORT MCAS PTSUNNY 93 76 57 S5 30.01F HX 105 BEAUFORT ARPT FAIR 91 77 62 SE9 30.00F HX 105 HILTON HEAD IS MOSUNNY 97 77 52 SE9 30.03F HX 112 WALTERBORO CLOUDY 95 70 43 SE6 30.01F HX 101 ALLENDALE FAIR 95 70 43 VRB5 29.98F HX 101 ...SOUTHERN MIDLANDS AND PEE DEE... CITY SKY/WX TMP DP RH WIND PRES REMARKS GEORGETOWN FAIR 88 77 70 S10 30.03F HX 100 KINGSTREE FAIR 95 66 38 CALM 29.99F HX 98 ORANGEBURG MOSUNNY 96 71 44 SW7 30.00F HX 103 BARNWELL NOT AVBL AIKEN FAIR 95 70 43 S5 30.03F HX 101 MANNING MOCLDY 91 70 49 CALM 30.00S HX 97 COLUMBIA CLOUDY 92 73 53 CALM 29.99S HX 100 SUMTER SUNNY 96 68 40 W5 29.97F HAZE HX 100 FLORENCE SUNNY 95 71 45 S3 30.00F HX 102 MYRTLE BEACH MOSUNNY 90 73 58 S14 30.04F HX 98 N MYRTLE BEACH SUNNY 88 78 72 SW18 30.02F HX 101 $$ GAZ063-065-086>088-099>101-113>116-118-119-134>141-150-242100- ...SOUTHEAST GEORGIA... CITY SKY/WX TMP DP RH WIND PRES REMARKS SAVANNAH ARPT TSTM 77 71 82 SW12 30.04R HUNTER AAF MOSUNNY 93 80 67 N14 30.01R HX 112 FORT STEWART MOSUNNY 96 71 43 E8 29.97F HX 103 STATESBORO SUNNY 97 72 44 CALM 30.00F HX 106 SYLVANIA NOT AVBL CLAXTON FAIR 96 71 43 N3 29.99F HX 103 ...CSRA...CENTRAL AND FAR SOUTHEAST GEORGIA... CITY SKY/WX TMP DP RH WIND PRES REMARKS THOMSON MOSUNNY 99 70 38 W3 30.03F HX 106 AUGUSTA-BUSH MOSUNNY 99 67 35 VRB6 29.98F HX 103 AUGUSTA-DANIEL SUNNY 97 68 38 S7 30.01F HX 102 SWAINSBORO MOCLDY 91 72 52 E5 30.01F HX 98 VIDALIA MOSUNNY 95 64 36 SE3 29.99F HX 97 EASTMAN CLOUDY 88 59 37 NE14 30.03S HAZLEHURST FAIR 97 68 38 CALM 29.99F HX 101 ALMA SUNNY 96 68 39 W5 29.99F HX 101 WAYCROSS MOSUNNY 100 72 40 S5 29.99F HX 108 JESUP LGT RAIN 79 77 94 E10G16 30.02R BAXLEY FAIR 97 73 46 S5 29.99F HX 107 BRUNSWICK SUNNY 93 75 55 SE12 30.02S HX 104 SAINT SIMONS SUNNY 91 75 59 SE13 30.02F HX 101 $$ SCZ027-028-034-036>038-045-046-048>050-GAZ119-141-242100- ...LAKE AND SUPPLEMENTAL COASTAL OBSERVATIONS... STATION/POSITION TIME TEMP WIND PRES WAVE SWELL AIR SEA DIR/SP/G HT/PER HT/PER/DIR (UTC) (F) (DEG/KT/KT) (MB) (FT/S) (FT/S/D) WINYAH BAY 1900 86 200/ 11 1016.0 LAKE MURRAY 1900 92 170/ 7/ 7 1015.2F ACE BASIN NERRS 1900 91 CALM 1017.0S FORT PULASKI 2000 89 88 140/ 7/ 11 1017.0F SAPELO ISLAND 2000 94 150/ 10 1017.0S $$ ANZ835-935-AMZ111-154-330-350-352-354-370-450-454-472-242100- ...C-MAN AND BUOY OBSERVATIONS... STATION/POSITION TIME TEMP WIND PRES WAVE SWELL AIR SEA DIR/SP/G HT/PER HT/PER/DIR (UTC) (F) (DEG/KT/KT) (MB) (FT/S) (FT/S/D) BUOY 41004 1950 84 86 180/ 4/ 6 1016.9F 2/ 9 2/120/ 9 BUOY 41008 1950 85 87 150/ 10/ 10 1017.1F 2/ 9 2/100/ 9 FOLLY BEACH CMAN 2000 86 180/ 12/ 14 1016.9F CAPERS NEARSHORE 2008 84 84 190/ 12/ 14 1016.9F FRIPP NEARSHORE 2008 86 88 170/ 12/ 16 1016.0F STATION/POSITION TIME TEMP WIND PRES WAVE SWELL AIR SEA DIR/SP/G HT/PER HT/PER/DIR (UTC) (F) (DEG/KT/KT) (MB) (FT/S) (FT/S/D) 5E ST. MARYS GA 2001 88 N/A 2/ 9 FRYING PAN BUOY 2000 85 87 200/ 8/ 10 1016.9F BUOY 41025 1950 85 86 230/ 14/ 16 1016.7F 2/ 8 2/120/ 8 CAPE LOOKOUT NC 2000 87 200/ 11/ 14 1016.6F BUOY 41002 1950 84 87 130/ 4/ 4 1018.3F 2/ 9 2/ 80/ 9 BUOY 41010 1920 85 89 90/ 2/ 4 1018.2F ST AUGUSTINE FL 2000 84 88 130/ 12/ 13 1017.8F $$

USA.gov is the U.S. government's official web portal to all federal, state and local government web resources and services.